Temperature
16 16 15 15 15 15 15 15 15 15 15 15 15 15 15 15 15 15 15 15 15 15 15 15 14 14 14 14 14 14 13 13 13 13 12 12 11 11 11 11 11 11 11
16 15 15 15 15 15 15 15 15 15 15 15 15 15 15 15 15 15 15 15 15 15 15 15 14 14 14 14 14 14 13 13 13 13 12 12 11 11 11 11 11 11 11
15 15 15 15 15 15 15 15 15 15 15 15 15 15 15 15 15 15 15 15 15 15 15 15 15 14 14 14 14 14 14 13 13 13 13 12 11 11 11 11 11 11 11
15 15 15 15 15 15 15 15 15 14 14 14 14 14 15 15 15 14 14 14 15 15 15 15 15 14 14 14 14 14 14 13 13 13 13 12 12 11 11 11 11 11 10
15 15 15 15 14 14 14 14 14 14 14 14 14 14 14 14 14 14 14 14 14 14 14 14 14 14 14 14 14 14 14 13 13 13 13 12 12 11 11 11 11 10 10
14 14 14 14 14 14 14 14 14 14 14 14 14 14 14 14 14 14 14 14 14 14 14 14 14 14 14 14 14 14 14 14 13 13 13 13 12 12 11 11 11 10 10
14 14 14 14 14 14 14 14 14 14 14 14 14 14 14 14 14 14 14 14 14 14 14 14 14 14 14 14 14 13 13 13 13 13 13 13 12 12 11 11 11 11 10
14 14 14 13 13 13 13 13 13 13 13 13 13 14 14 14 14 14 14 14 14 14 14 14 14 14 14 14 13 13 13 13 13 13 12 12 12 12 11 11 11 10 10
13 13 13 13 13 13 13 13 13 13 13 13 13 13 13 14 14 13 13 13 13 14 14 14 14 14 14 13 13 13 13 13 13 12 12 12 12 11 11 11 11 10 10
13 13 13 13 13 13 13 13 13 13 13 13 13 13 13 13 13 13 13 13 13 13 13 13 13 13 13 13 13 13 13 13 12 12 12 12 11 11 11 11 11 10 10
12 12 13 13 13 13 13 13 13 13 13 12 12 13 13 13 13 13 13 13 13 13 13 13 13 13 13 13 13 13 13 13 12 12 12 12 11 11 11 11 11 10 10
12 12 12 12 12 12 12 12 12 12 12 12 12 12 12 12 12 12 13 12 12 12 13 13 13 13 13 13 13 13 12 12 12 12 12 12 11 11 11 11 10 10 10
11 12 12 12 12 12 12 12 12 12 11 11 12 12 12 12 12 12 12 12 12 12 12 12 12 12 12 12 12 12 12 12 12 12 12 12 11 11 11 10 10 10 9
11 11 11 11 11 11 11 11 11 11 11 11 11 11 11 11 12 12 12 12 12 12 12 12 12 12 12 12 12 12 12 12 12 12 12 11 11 11 10 10 10 10 9
10 10 10 11 11 11 11 11 11 11 11 11 11 11 11 11 11 11 11 11 11 11 11 11 11 11 11 12 12 11 11 11 11 11 11 11 11 11 10 10 10 10 9
10 10 10 10 10 10 10 10 10 10 10 10 10 10 11 11 11 11 11 11 11 11 11 11 11 11 11 11 11 11 11 11 11 11 11 11 11 10 10 10 9 9 9
9 9 9 9 10 10 9 9 10 10 10 10 10 10 10 10 10 10 10 10 10 10 10 10 11 11 11 11 11 11 11 11 11 11 11 10 10 10 10 10 9 9 9
9 9 9 9 9 9 9 9 9 9 9 9 9 10 10 10 10 10 10 10 10 10 10 10 10 10 10 11 11 11 11 10 10 10 10 10 10 10 10 9 9 9 9
8 8 8 9 9 9 9 9 9 9 9 9 9 9 9 9 9 9 9 9 9 9 10 10 10 10 10 10 10 10 10 10 10 10 10 10 10 9 9 9 9 9 8
8 8 8 8 8 8 8 8 8 8 8 8 8 9 9 9 9 9 9 9 9 9 9 9 9 9 10 10 10 10 10 10 9 9 9 9 9 9 9 9 9 8 8
7 7 7 8 8 8 8 8 8 8 8 8 8 8 8 8 8 9 9 9 9 9 9 9 9 9 9 9 9 9 9 9 9 9 9 9 9 9 9 8 8 8 8
7 7 7 7 7 7 7 7 7 7 8 8 7 7 8 8 8 8 8 8 8 8 8 8 9 9 9 9 9 9 9 9 9 9 9 9 9 8 8 8 8 8 8
7 7 7 7 7 7 7 7 7 7 7 7 7 7 7 7 7 8 8 8 8 8 8 8 8 8 8 8 8 8 9 9 9 9 8 8 8 8 8 8 8 8 7
6 6 7 6 6 6 6 6 7 7 7 7 7 7 7 7 7 7 7 7 7 7 8 8 8 8 8 8 8 8 8 8 8 8 8 8 8 8 7 7 7 7 7
6 6 6 6 6 6 6 6 6 6 6 6 7 6 6 7 7 7 7 7 7 7 7 7 8 8 8 7 7 7 7 7 7 7 7 7 7 7 7 7 7 7 6
6 6 6 6 6 6 6 6 6 6 6 6 6 6 6 6 6 6 6 7 7 7 7 7 7 7 7 7 7 7 7 7 7 7 7 6 6 6 6 6 6 6 6
Wind_Speed
3 3 3 3 3 3 3 4 4 3 3 4 4 4 4 5 5 5 5 5 5 5 4 5 5 4 4 4 4 4 4 4 4 2 1 2 3 4 4 5 5 5 5
4 3 3 3 3 3 3 3 3 4 4 4 4 4 4 4 5 6 6 6 6 6 6 5 5 5 5 4 4 5 4 4 5 5 2 2 2 4 4 4 4 4 4
3 3 3 3 3 3 3 3 3 3 3 3 4 4 4 4 4 5 5 6 6 6 6 6 6 6 5 4 5 5 4 4 4 5 4 2 2 2 2 2 3 2 3
3 3 4 4 4 4 4 3 3 3 3 3 3 4 4 4 4 4 4 5 5 6 6 6 6 8 8 7 6 6 6 5 5 6 4 3 2 2 3 2 1 0 0
2 3 5 4 4 4 4 3 3 3 3 3 3 3 3 3 4 4 4 5 5 5 4 5 6 8 10 8 7 7 8 6 6 5 5 3 3 3 3 3 2 1 0
3 4 5 4 4 5 4 4 4 3 3 3 3 3 4 4 6 7 6 4 5 5 5 5 5 6 9 10 11 12 12 10 8 6 5 5 5 4 4 4 3 2 1
4 4 4 5 5 5 5 4 4 4 4 3 3 3 4 5 7 7 8 5 5 6 6 5 5 5 6 6 8 11 11 12 13 10 8 8 7 7 7 5 4 4 3
4 4 4 5 5 4 5 5 5 5 5 5 4 4 3 5 7 7 8 5 5 5 6 6 7 6 7 8 7 6 5 6 9 8 8 8 7 8 9 7 6 4 1
4 5 5 5 5 5 5 6 5 5 5 5 4 5 4 5 6 7 8 4 4 4 5 6 7 7 10 11 9 8 6 4 6 8 8 8 9 11 11 6 5 4 2
5 5 5 5 5 6 7 6 5 5 6 5 5 5 6 5 7 8 8 5 4 4 3 5 8 9 11 13 10 9 8 6 5 5 4 5 7 9 12 9 7 5 3
5 4 4 4 5 6 5 5 5 5 4 5 5 4 5 6 7 9 9 6 6 5 4 4 5 10 12 14 12 9 10 8 6 6 5 4 3 4 5 7 7 6 5
4 3 4 4 4 4 4 4 4 4 5 5 4 4 4 4 5 7 9 8 7 5 6 5 6 10 11 12 10 9 11 9 5 5 4 4 4 4 4 5 7 7 5
3 4 4 4 3 3 4 4 4 4 4 5 5 5 4 4 4 8 9 9 8 5 4 7 8 10 10 9 10 11 10 6 6 5 5 5 4 4 4 3 3 4 2
4 4 3 3 3 2 3 4 4 5 5 5 5 5 5 4 4 5 5 6 6 4 3 4 6 8 7 7 7 7 6 7 7 6 5 4 3 3 3 3 3 3 1
4 5 4 3 4 3 3 4 5 5 6 6 6 5 5 6 7 8 7 6 5 4 3 2 2 3 5 4 4 5 5 5 6 4 5 4 4 4 3 3 3 3 3
4 4 3 3 3 3 3 3 4 5 7 8 8 7 6 7 7 9 9 8 7 7 5 4 5 6 7 7 7 6 6 6 6 6 6 6 6 6 4 3 3 4 4
4 5 4 3 3 3 3 3 3 3 4 5 6 7 7 6 7 9 9 8 8 8 4 5 6 7 7 7 7 7 7 6 6 6 6 6 6 6 5 5 5 4 4
5 5 5 4 4 4 4 3 3 3 3 2 3 4 5 6 6 7 8 6 4 5 5 5 6 6 6 7 7 7 6 5 5 6 6 6 6 6 6 6 6 6 5
4 4 4 4 4 4 4 3 3 4 3 2 2 2 3 4 5 6 7 5 5 6 6 5 5 6 6 6 7 7 7 7 7 7 7 7 7 6 6 6 6 7 5
4 7 5 4 3 3 3 3 3 3 3 3 3 3 2 2 2 3 4 4 5 6 6 6 6 5 6 6 6 6 7 7 7 7 7 7 7 7 7 8 7 6 6
5 5 6 4 4 4 4 4 4 4 4 4 4 4 5 4 4 5 5 5 5 6 6 6 5 5 5 5 5 6 7 7 7 7 7 7 7 7 7 7 7 7 6
4 4 4 5 4 4 4 4 4 4 5 4 3 3 5 4 4 4 5 5 5 5 5 5 6 6 6 6 6 6 7 7 7 6 6 6 6 7 7 7 6 6 6
4 4 4 4 4 4 4 3 4 4 4 4 4 4 4 4 4 4 5 5 4 4 4 5 5 5 5 6 6 7 8 8 8 7 7 6 6 6 6 7 8 8 7
4 4 4 3 3 4 4 4 4 4 4 4 4 4 4 5 4 4 4 4 4 4 4 4 5 7 8 7 7 8 8 8 8 8 9 8 7 6 6 6 7 8 8
3 3 3 3 3 3 4 4 3 4 4 4 4 4 4 4 4 4 4 4 4 4 4 4 4 6 7 8 8 8 9 11 10 8 8 7 7 8 7 7 7 7 7
3 3 3 3 3 3 4 4 4 4 4 4 4 4 4 4 4 4 4 4 4 4 4 4 5 5 6 7 8 9 9 10 11 11 9 7 7 7 7 6 7 7 7
Wind_Direction
210 216 203 207 202 187 195 206 205 209 202 199 200 202 205 202 189 183 194 187 184 187 181 171 177 167 164 169 160 154 146 135 144 169 137 135 132 130 123 119 108 105 99
211 211 215 214 207 200 208 215 205 204 207 204 199 198 201 198 195 194 200 194 189 190 190 178 185 175 168 170 166 167 160 149 144 150 142 136 145 151 138 133 127 114 106
212 213 223 221 217 217 214 216 208 203 207 201 193 193 197 197 196 199 198 194 193 193 191 191 191 171 176 174 168 166 160 150 135 145 150 139 126 140 117 121 125 123 118
214 210 220 221 221 220 215 206 207 204 197 195 200 203 196 192 192 189 186 188 190 192 193 195 192 183 183 175 171 168 156 142 137 141 143 141 139 142 134 135 116 56 135
219 218 226 226 219 213 211 207 205 205 204 197 194 212 210 197 198 188 184 186 188 190 191 196 194 186 180 175 171 167 157 151 148 149 152 143 157 162 180 171 161 159 345
216 229 229 221 218 212 209 204 198 199 192 187 196 200 206 214 207 191 183 181 185 188 196 200 198 186 185 182 175 168 165 164 166 163 168 178 191 185 167 163 149 147 227
232 235 230 220 220 218 208 197 198 198 191 186 202 203 210 219 206 194 187 183 188 196 195 192 197 192 176 177 175 170 174 175 170 169 176 189 187 187 171 168 177 178 196
242 239 232 226 225 220 204 205 208 198 196 198 205 207 213 221 204 192 187 183 184 189 193 193 189 184 179 170 163 162 173 185 185 179 185 191 187 180 179 179 176 158 133
258 246 237 228 222 218 213 216 215 199 201 204 202 203 208 225 209 190 178 181 186 195 200 195 186 184 180 166 162 166 173 196 194 189 185 180 177 175 167 142 143 149 189
263 256 243 229 221 220 220 221 216 204 206 200 203 208 210 218 214 197 182 181 189 203 209 202 192 187 180 171 172 172 180 191 172 166 165 174 173 176 174 171 169 166 170
268 269 258 240 231 228 221 217 210 204 199 201 206 216 221 221 215 203 191 189 195 197 205 209 204 188 183 180 179 182 186 174 170 165 162 160 158 168 178 182 177 172 174
274 271 263 250 244 247 219 215 206 196 196 204 210 222 235 231 215 207 197 197 193 196 208 211 199 187 183 182 183 184 171 158 157 158 163 176 182 188 187 183 186 188 192
277 270 265 255 244 227 214 209 205 202 204 210 211 221 231 231 217 210 201 196 196 200 210 202 192 187 182 184 188 179 166 162 163 171 188 197 195 184 165 153 155 155 146
272 271 263 251 250 234 221 210 206 207 210 214 217 224 227 231 220 210 204 199 196 199 197 189 180 176 175 179 180 180 178 180 178 187 192 186 162 159 170 167 162 158 140
282 279 267 249 233 226 228 225 219 221 215 217 220 216 216 230 226 204 194 199 197 190 164 159 159 164 178 185 187 188 185 182 187 182 178 176 177 179 187 174 164 161 175
283 281 271 250 239 230 234 273 253 233 231 230 228 225 232 230 217 203 202 197 187 171 162 190 193 193 196 195 195 196 195 196 195 187 185 187 189 191 191 181 173 181 198
268 268 268 243 228 225 226 231 259 277 248 236 236 232 230 225 214 203 200 192 181 171 190 205 203 200 202 199 198 198 201 200 190 187 191 193 192 191 188 192 193 195 208
272 272 264 240 226 218 221 230 233 235 246 267 261 238 226 220 215 201 183 163 181 192 208 210 213 207 203 201 200 201 200 191 187 190 191 191 191 190 192 197 200 204 210
273 271 258 243 230 221 216 220 228 229 228 233 248 251 223 211 200 187 169 183 199 210 214 216 217 213 210 208 204 200 197 197 195 194 196 197 196 194 201 204 205 205 204
272 274 264 244 234 227 217 216 221 222 221 216 220 228 206 183 192 198 200 205 209 213 214 217 218 215 213 212 206 198 197 199 199 202 203 201 200 200 204 205 204 204 208
270 268 263 246 230 222 216 218 222 223 222 223 228 231 207 201 205 208 206 209 211 213 215 215 215 214 212 210 207 202 201 205 204 205 206 204 201 205 207 206 207 207 207
258 251 240 227 222 221 223 222 224 226 224 222 228 225 210 209 209 212 214 219 220 219 215 212 214 214 209 209 208 205 205 207 207 206 207 205 203 204 204 205 206 206 206
252 249 238 227 217 220 220 223 226 226 225 225 226 224 218 215 218 221 221 223 227 224 220 216 217 221 224 218 217 211 209 211 209 203 202 203 205 207 207 208 207 205 209
247 242 229 221 215 209 210 217 223 228 227 224 224 226 222 217 219 227 228 225 225 228 230 228 227 224 226 223 219 218 216 216 211 206 199 201 205 207 208 209 209 210 212
248 232 220 215 210 209 210 214 221 225 229 228 226 224 218 215 215 223 230 225 223 223 227 232 233 228 227 225 221 222 218 212 212 209 203 200 205 207 206 207 210 211 213
241 219 214 214 211 213 215 218 223 226 228 232 232 226 220 215 212 217 225 224 223 227 233 236 234 229 230 231 223 219 214 210 208 206 204 202 204 208 205 208 208 211 211
Height
1530 1530 1530 1531 1531 1531 1531 1531 1531 1532 1532 1533 1534 1534 1535 1536 1538 1539 1540 1541 1543 1544 1545 1546 1547 1548 1549 1551 1552 1553 1554 1555 1555 1556 1557 1558 1559 1560 1560 1560 1560 1559 1559
1527 1528 1528 1529 1529 1529 1529 1529 1529 1530 1530 1531 1532 1533 1533 1534 1535 1536 1538 1539 1540 1541 1543 1544 1545 1547 1548 1549 1550 1551 1552 1553 1554 1555 1556 1557 1558 1559 1560 1560 1560 1559 1559
1525 1526 1526 1526 1526 1526 1527 1527 1527 1528 1528 1529 1529 1530 1531 1532 1533 1534 1535 1536 1538 1539 1541 1542 1543 1544 1546 1547 1548 1549 1551 1552 1553 1554 1554 1556 1557 1558 1559 1559 1559 1559 1559
1523 1523 1523 1523 1524 1524 1524 1525 1525 1526 1526 1526 1527 1528 1528 1529 1530 1531 1533 1534 1535 1537 1538 1539 1541 1542 1543 1545 1546 1547 1548 1550 1551 1552 1553 1554 1555 1556 1557 1557 1558 1558 1558
1520 1520 1520 1520 1521 1521 1521 1522 1522 1523 1524 1524 1525 1525 1526 1527 1527 1528 1530 1531 1532 1534 1535 1536 1538 1539 1541 1542 1544 1545 1546 1547 1549 1550 1551 1552 1553 1553 1554 1555 1556 1556 1556
1517 1517 1517 1517 1517 1517 1518 1519 1519 1520 1521 1521 1522 1522 1523 1524 1525 1526 1527 1528 1529 1531 1532 1533 1535 1536 1538 1540 1541 1543 1544 1545 1546 1547 1548 1549 1550 1551 1552 1553 1554 1554 1554
1514 1513 1513 1514 1514 1514 1514 1515 1516 1516 1517 1518 1519 1519 1520 1521 1522 1523 1524 1525 1526 1527 1528 1530 1531 1533 1535 1537 1538 1540 1541 1543 1544 1545 1546 1547 1548 1549 1550 1551 1552 1552 1553
1510 1509 1510 1510 1510 1510 1510 1511 1512 1513 1513 1514 1515 1516 1516 1517 1518 1519 1520 1522 1523 1524 1525 1527 1528 1530 1532 1533 1535 1537 1538 1540 1541 1542 1544 1545 1546 1547 1548 1549 1550 1551 1551
1505 1505 1505 1505 1505 1505 1506 1506 1507 1508 1509 1510 1511 1512 1512 1513 1515 1516 1517 1518 1519 1520 1522 1523 1525 1527 1528 1530 1532 1533 1535 1536 1538 1540 1541 1543 1544 1545 1546 1547 1547 1548 1548
1501 1500 1501 1501 1501 1501 1501 1502 1503 1504 1504 1506 1506 1508 1508 1509 1511 1512 1514 1514 1515 1516 1518 1519 1521 1523 1525 1527 1528 1530 1531 1533 1535 1536 1538 1540 1541 1542 1543 1543 1544 1545 1545
1497 1496 1496 1496 1496 1496 1496 1497 1498 1499 1500 1501 1502 1503 1504 1505 1506 1508 1509 1510 1511 1512 1513 1515 1517 1519 1521 1523 1524 1526 1528 1530 1531 1533 1534 1536 1537 1538 1539 1540 1541 1542 1543
1492 1491 1490 1490 1490 1491 1491 1492 1493 1494 1495 1496 1497 1498 1499 1500 1501 1503 1504 1506 1507 1508 1509 1511 1512 1515 1517 1519 1520 1522 1525 1526 1528 1529 1531 1532 1533 1534 1536 1537 1538 1539 1540
1487 1486 1486 1485 1485 1485 1486 1486 1487 1489 1489 1490 1492 1492 1493 1495 1496 1498 1499 1501 1502 1504 1505 1506 1508 1510 1512 1514 1516 1518 1520 1522 1524 1525 1526 1528 1530 1531 1533 1534 1535 1536 1537
1483 1481 1481 1480 1480 1480 1481 1482 1483 1483 1484 1485 1486 1487 1489 1490 1491 1493 1494 1496 1497 1499 1500 1501 1503 1505 1507 1509 1512 1514 1516 1518 1519 1521 1523 1525 1526 1527 1528 1530 1531 1531 1532
1477 1476 1476 1476 1476 1476 1476 1477 1478 1479 1480 1480 1481 1483 1484 1485 1486 1488 1489 1491 1492 1494 1495 1497 1498 1500 1502 1504 1507 1509 1511 1513 1515 1517 1518 1520 1521 1523 1524 1526 1526 1527 1528
1472 1471 1470 1470 1471 1471 1471 1472 1472 1474 1475 1476 1477 1478 1479 1480 1482 1483 1485 1486 1488 1489 1490 1491 1493 1495 1497 1499 1501 1503 1505 1508 1510 1512 1514 1515 1517 1518 1520 1521 1522 1523 1523
1467 1466 1465 1465 1465 1466 1466 1466 1466 1468 1469 1470 1471 1472 1473 1475 1476 1478 1479 1481 1482 1484 1485 1485 1487 1490 1492 1494 1496 1498 1500 1503 1505 1507 1509 1510 1512 1513 1514 1516 1517 1518 1518
1462 1461 1460 1460 1460 1460 1461 1461 1462 1462 1463 1463 1465 1466 1468 1469 1471 1473 1474 1476 1476 1478 1479 1480 1482 1484 1486 1488 1490 1493 1495 1497 1499 1501 1503 1505 1507 1508 1509 1510 1511 1512 1513
1456 1455 1455 1455 1455 1455 1455 1456 1457 1457 1458 1459 1459 1461 1462 1464 1466 1467 1469 1470 1470 1472 1474 1475 1477 1479 1481 1483 1485 1487 1489 1491 1493 1495 1497 1499 1501 1502 1503 1505 1506 1507 1508
1451 1450 1450 1449 1450 1450 1450 1451 1451 1452 1453 1454 1455 1456 1457 1459 1459 1461 1463 1464 1465 1467 1468 1470 1472 1473 1475 1477 1479 1481 1483 1485 1487 1489 1491 1493 1495 1496 1498 1499 1500 1501 1502
1444 1444 1444 1444 1444 1445 1445 1446 1447 1448 1448 1449 1450 1451 1453 1454 1455 1456 1458 1459 1460 1461 1463 1465 1466 1468 1470 1471 1473 1475 1477 1479 1481 1483 1484 1486 1488 1490 1491 1493 1494 1495 1496
1439 1438 1438 1438 1439 1440 1440 1441 1442 1443 1444 1444 1445 1447 1448 1449 1450 1451 1452 1454 1455 1457 1458 1460 1461 1462 1464 1465 1467 1469 1470 1472 1474 1476 1478 1479 1481 1483 1485 1486 1488 1489 1490
1433 1433 1432 1432 1433 1434 1435 1436 1437 1438 1439 1440 1441 1442 1443 1444 1445 1446 1447 1449 1450 1451 1453 1454 1455 1456 1457 1459 1460 1462 1464 1465 1468 1469 1471 1472 1474 1476 1478 1479 1481 1482 1483
1427 1427 1426 1427 1428 1429 1430 1431 1432 1433 1434 1435 1436 1437 1438 1439 1440 1441 1442 1444 1445 1446 1447 1448 1449 1450 1451 1452 1454 1455 1457 1459 1461 1462 1464 1466 1467 1469 1471 1472 1474 1476 1477
1422 1422 1422 1422 1423 1424 1426 1427 1428 1429 1430 1431 1432 1432 1433 1434 1435 1436 1437 1439 1440 1440 1441 1442 1443 1444 1445 1446 1447 1449 1450 1452 1454 1456 1457 1459 1461 1463 1464 1466 1467 1469 1470
1418 1419 1419 1419 1420 1420 1421 1422 1423 1424 1425 1426 1427 1428 1429 1430 1431 1432 1433 1434 1435 1435 1436 1437 1437 1438 1439 1440 1441 1443 1444 1446 1447 1449 1451 1452 1454 1456 1457 1459 1460 1462 1463